Time,TemperatureF,DewpointF,PressureIn,WindDirection,WindDirectionDegrees,WindSpeedMPH,WindSpeedGustMPH,Humidity,HourlyPrecipIn,Conditions,Clouds,dailyrainin,SoftwareType,DateUTC
2013-09-08 00:02:00,75.2,71.4,29.83,North,4,2.0,4.0,88,0.00,,,0.00,VWS V14.01,2013-09-08 05:02:00,
2013-09-08 00:08:00,75.0,71.2,29.83,NNE,15,0.0,3.0,88,0.00,,,0.00,VWS V14.01,2013-09-08 05:08:00,
2013-09-08 00:13:00,74.8,71.3,29.83,NNE,15,3.0,5.0,89,0.00,,,0.00,VWS V14.01,2013-09-08 05:13:00,
2013-09-08 00:18:00,74.6,71.2,29.83,North,8,2.0,5.0,89,0.00,,,0.00,VWS V14.01,2013-09-08 05:18:00,
2013-09-08 00:23:00,74.5,71.1,29.84,North,8,3.0,5.0,89,0.00,,,0.00,VWS V14.01,2013-09-08 05:23:00,
2013-09-08 00:28:00,74.3,71.2,29.84,North,4,1.0,3.0,90,0.00,,,0.00,VWS V14.01,2013-09-08 05:28:00,
2013-09-08 00:33:00,74.2,71.1,29.84,North,4,2.0,4.0,90,0.00,,,0.00,VWS V14.01,2013-09-08 05:33:00,
2013-09-08 00:38:00,74.2,71.1,29.84,North,4,2.0,2.0,90,0.00,,,0.00,VWS V14.01,2013-09-08 05:38:00,
2013-09-08 00:43:00,74.1,71.0,29.84,North,4,3.0,3.0,90,0.00,,,0.00,VWS V14.01,2013-09-08 05:43:00,
2013-09-08 00:48:00,74.1,71.0,29.84,North,4,2.0,2.0,90,0.00,,,0.00,VWS V14.01,2013-09-08 05:48:00,
2013-09-08 00:53:00,74.1,71.0,29.83,North,4,4.0,4.0,90,0.00,,,0.00,VWS V14.01,2013-09-08 05:53:00,
2013-09-08 00:58:00,74.2,71.1,29.83,North,4,3.0,3.0,90,0.00,,,0.00,VWS V14.01,2013-09-08 05:58:00,
2013-09-08 01:03:00,74.2,71.1,29.83,North,4,1.0,4.0,90,0.00,,,0.00,VWS V14.01,2013-09-08 06:03:00,
2013-09-08 01:08:00,74.2,71.1,29.83,North,354,1.0,4.0,90,0.00,,,0.00,VWS V14.01,2013-09-08 06:08:00,
2013-09-08 01:13:00,74.2,70.8,29.84,North,354,1.0,3.0,89,0.00,,,0.00,VWS V14.01,2013-09-08 06:13:00,
2013-09-08 01:18:00,74.2,70.8,29.84,North,354,2.0,3.0,89,0.00,,,0.00,VWS V14.01,2013-09-08 06:18:00,
2013-09-08 01:23:00,74.3,70.8,29.84,North,359,0.0,1.0,89,0.00,,,0.00,VWS V14.01,2013-09-08 06:23:00,
2013-09-08 01:28:00,74.4,70.9,29.83,North,359,2.0,2.0,89,0.00,,,0.00,VWS V14.01,2013-09-08 06:28:00,
2013-09-08 01:33:00,74.4,70.9,29.83,North,359,0.0,2.0,89,0.00,,,0.00,VWS V14.01,2013-09-08 06:33:00,
2013-09-08 01:38:00,74.5,70.7,29.83,North,359,0.0,3.0,88,0.00,,,0.00,VWS V14.01,2013-09-08 06:38:00,
2013-09-08 01:43:00,74.5,70.7,29.83,North,359,0.0,3.0,88,0.00,,,0.00,VWS V14.01,2013-09-08 06:43:00,
2013-09-08 01:48:00,74.5,70.7,29.83,North,359,0.0,2.0,88,0.00,,,0.00,VWS V14.01,2013-09-08 06:48:00,
2013-09-08 01:53:00,74.5,70.7,29.83,North,359,1.0,3.0,88,0.00,,,0.00,VWS V14.01,2013-09-08 06:53:00,
2013-09-08 01:58:00,74.6,70.8,29.83,North,359,1.0,2.0,88,0.00,,,0.00,VWS V14.01,2013-09-08 06:58:00,
2013-09-08 02:03:00,74.6,70.5,29.83,North,359,1.0,2.0,87,0.00,,,0.00,VWS V14.01,2013-09-08 07:03:00,
2013-09-08 02:08:00,74.6,70.5,29.83,North,359,0.0,3.0,87,0.00,,,0.00,VWS V14.01,2013-09-08 07:08:00,
2013-09-08 02:13:00,74.6,70.5,29.83,North,359,2.0,4.0,87,0.00,,,0.00,VWS V14.01,2013-09-08 07:13:00,
2013-09-08 02:18:00,74.5,70.4,29.83,North,359,0.0,0.0,87,0.00,,,0.00,VWS V14.01,2013-09-08 07:18:00,
2013-09-08 02:23:00,74.5,70.4,29.83,North,359,0.0,0.0,87,0.00,,,0.00,VWS V14.01,2013-09-08 07:23:00,
2013-09-08 02:28:00,74.4,70.3,29.83,North,359,0.0,1.0,87,0.00,,,0.00,VWS V14.01,2013-09-08 07:28:00,
2013-09-08 02:33:00,74.3,70.2,29.83,North,359,0.0,1.0,87,0.00,,,0.00,VWS V14.01,2013-09-08 07:33:00,
2013-09-08 02:38:00,74.3,70.2,29.82,North,359,0.0,1.0,87,0.00,,,0.00,VWS V14.01,2013-09-08 07:38:00,
2013-09-08 02:43:00,74.3,70.2,29.83,North,359,0.0,1.0,87,0.00,,,0.00,VWS V14.01,2013-09-08 07:43:00,
2013-09-08 02:48:00,74.2,70.1,29.83,North,359,0.0,2.0,87,0.00,,,0.00,VWS V14.01,2013-09-08 07:48:00,
2013-09-08 02:53:00,74.2,70.1,29.82,North,359,0.0,1.0,87,0.00,,,0.00,VWS V14.01,2013-09-08 07:53:00,
2013-09-08 02:58:00,74.1,70.0,29.82,North,359,1.0,3.0,87,0.00,,,0.00,VWS V14.01,2013-09-08 07:58:00,
2013-09-08 03:03:00,74.1,70.0,29.82,North,359,1.0,1.0,87,0.00,,,0.00,VWS V14.01,2013-09-08 08:03:00,
2013-09-08 03:08:00,74.1,70.0,29.82,North,359,0.0,1.0,87,0.00,,,0.00,VWS V14.01,2013-09-08 08:08:00,
2013-09-08 03:13:00,74.0,69.9,29.82,North,359,0.0,2.0,87,0.00,,,0.00,VWS V14.01,2013-09-08 08:13:00,
2013-09-08 03:18:00,74.0,69.9,29.82,North,359,0.0,2.0,87,0.00,,,0.00,VWS V14.01,2013-09-08 08:18:00,
2013-09-08 03:24:00,73.9,69.8,29.82,North,359,1.0,3.0,87,0.00,,,0.00,VWS V14.01,2013-09-08 08:24:00,
2013-09-08 03:29:00,73.9,69.8,29.82,North,359,0.0,3.0,87,0.00,,,0.00,VWS V14.01,2013-09-08 08:29:00,
2013-09-08 03:34:00,73.8,69.7,29.82,North,359,3.0,3.0,87,0.00,,,0.00,VWS V14.01,2013-09-08 08:34:00,
2013-09-08 03:39:00,73.7,69.6,29.82,North,359,2.0,3.0,87,0.00,,,0.00,VWS V14.01,2013-09-08 08:39:00,
2013-09-08 03:44:00,73.4,69.6,29.81,North,359,2.0,4.0,88,0.00,,,0.00,VWS V14.01,2013-09-08 08:44:00,
2013-09-08 03:49:00,73.1,69.3,29.81,North,359,2.0,3.0,88,0.00,,,0.00,VWS V14.01,2013-09-08 08:49:00,
2013-09-08 03:54:00,72.8,69.4,29.82,North,359,2.0,4.0,89,0.00,,,0.00,VWS V14.01,2013-09-08 08:54:00,
2013-09-08 03:59:00,72.6,69.2,29.82,North,4,3.0,6.0,89,0.00,,,0.00,VWS V14.01,2013-09-08 08:59:00,
2013-09-08 04:04:00,72.3,68.9,29.82,North,8,3.0,5.0,89,0.00,,,0.00,VWS V14.01,2013-09-08 09:04:00,
2013-09-08 04:09:00,72.1,69.0,29.82,NNE,13,4.0,7.0,90,0.00,,,0.00,VWS V14.01,2013-09-08 09:09:00,
2013-09-08 04:14:00,71.8,68.7,29.82,North,4,3.0,4.0,90,0.00,,,0.00,VWS V14.01,2013-09-08 09:14:00,
2013-09-08 04:19:00,71.6,68.8,29.82,North,354,6.0,6.0,91,0.00,,,0.00,VWS V14.01,2013-09-08 09:19:00,
2013-09-08 04:24:00,71.5,68.7,29.82,North,11,2.0,3.0,91,0.00,,,0.00,VWS V14.01,2013-09-08 09:24:00,
2013-09-08 04:29:00,71.4,69.0,29.82,North,11,2.0,4.0,92,0.00,,,0.00,VWS V14.01,2013-09-08 09:29:00,
2013-09-08 04:34:00,71.3,68.9,29.82,North,4,3.0,4.0,92,0.00,,,0.00,VWS V14.01,2013-09-08 09:34:00,
2013-09-08 04:39:00,71.3,68.9,29.82,North,4,1.0,3.0,92,0.00,,,0.00,VWS V14.01,2013-09-08 09:39:00,
2013-09-08 04:44:00,71.3,68.9,29.82,North,4,2.0,4.0,92,0.00,,,0.00,VWS V14.01,2013-09-08 09:44:00,
2013-09-08 04:49:00,71.3,68.9,29.82,North,4,3.0,3.0,92,0.00,,,0.00,VWS V14.01,2013-09-08 09:49:00,
2013-09-08 04:54:00,71.3,68.9,29.82,North,4,3.0,5.0,92,0.00,,,0.00,VWS V14.01,2013-09-08 09:54:00,
2013-09-08 04:59:00,71.3,68.5,29.82,North,359,3.0,3.0,91,0.00,,,0.00,VWS V14.01,2013-09-08 09:59:00,
2013-09-08 05:04:00,71.2,68.4,29.82,North,359,3.0,3.0,91,0.00,,,0.00,VWS V14.01,2013-09-08 10:04:00,
2013-09-08 05:09:00,71.1,68.3,29.82,North,4,4.0,4.0,91,0.00,,,0.00,VWS V14.01,2013-09-08 10:09:00,
2013-09-08 05:14:00,71.0,68.2,29.81,North,4,3.0,5.0,91,0.00,,,0.00,VWS V14.01,2013-09-08 10:14:00,
2013-09-08 05:19:00,71.0,68.6,29.81,North,4,3.0,3.0,92,0.00,,,0.00,VWS V14.01,2013-09-08 10:19:00,
2013-09-08 05:24:00,70.9,68.5,29.81,North,4,3.0,4.0,92,0.00,,,0.00,VWS V14.01,2013-09-08 10:24:00,
2013-09-08 05:29:00,70.9,68.5,29.81,North,4,4.0,4.0,92,0.00,,,0.00,VWS V14.01,2013-09-08 10:29:00,
2013-09-08 05:34:00,70.8,68.4,29.81,North,4,2.0,3.0,92,0.00,,,0.00,VWS V14.01,2013-09-08 10:34:00,
2013-09-08 05:39:00,70.8,68.4,29.81,North,4,3.0,4.0,92,0.00,,,0.00,VWS V14.01,2013-09-08 10:39:00,
2013-09-08 05:44:00,70.8,68.4,29.81,North,4,3.0,5.0,92,0.00,,,0.00,VWS V14.01,2013-09-08 10:44:00,
2013-09-08 05:49:00,70.7,68.3,29.81,North,4,3.0,5.0,92,0.00,,,0.00,VWS V14.01,2013-09-08 10:49:00,
2013-09-08 05:54:00,70.6,68.2,29.81,North,11,2.0,4.0,92,0.00,,,0.00,VWS V14.01,2013-09-08 10:54:00,
2013-09-08 05:59:00,70.6,68.2,29.81,North,11,3.0,3.0,92,0.00,,,0.00,VWS V14.01,2013-09-08 10:59:00,
2013-09-08 06:04:00,70.6,68.2,29.81,North,11,3.0,3.0,92,0.00,,,0.00,VWS V14.01,2013-09-08 11:04:00,
2013-09-08 06:09:00,70.5,68.1,29.81,North,11,2.0,2.0,92,0.00,,,0.00,VWS V14.01,2013-09-08 11:09:00,
2013-09-08 06:14:00,70.5,68.1,29.81,North,11,1.0,2.0,92,0.00,,,0.00,VWS V14.01,2013-09-08 11:14:00,
2013-09-08 06:19:00,70.4,68.0,29.81,North,11,0.0,1.0,92,0.00,,,0.00,VWS V14.01,2013-09-08 11:19:00,
2013-09-08 06:25:00,70.5,68.1,29.81,North,11,2.0,2.0,92,0.00,,,0.00,VWS V14.01,2013-09-08 11:25:00,
2013-09-08 06:30:00,70.4,68.0,29.81,North,11,0.0,0.0,92,0.00,,,0.00,VWS V14.01,2013-09-08 11:30:00,
2013-09-08 06:35:00,70.4,68.0,29.81,North,11,0.0,0.0,92,0.00,,,0.00,VWS V14.01,2013-09-08 11:35:00,
2013-09-08 06:40:00,70.4,68.0,29.80,North,11,0.0,0.0,92,0.00,,,0.00,VWS V14.01,2013-09-08 11:40:00,
2013-09-08 06:45:00,70.3,67.9,29.80,North,11,0.0,0.0,92,0.00,,,0.00,VWS V14.01,2013-09-08 11:45:00,
2013-09-08 06:50:00,70.3,67.9,29.80,North,11,0.0,1.0,92,0.00,,,0.00,VWS V14.01,2013-09-08 11:50:00,
2013-09-08 06:55:00,70.3,67.9,29.80,North,11,0.0,1.0,92,0.00,,,0.00,VWS V14.01,2013-09-08 11:55:00,
2013-09-08 07:00:00,70.3,67.9,29.80,North,11,0.0,0.0,92,0.00,,,0.00,VWS V14.01,2013-09-08 12:00:00,
2013-09-08 07:05:00,70.2,67.8,29.80,North,11,0.0,2.0,92,0.00,,,0.00,VWS V14.01,2013-09-08 12:05:00,
2013-09-08 07:10:00,70.1,67.7,29.80,North,11,1.0,2.0,92,0.00,,,0.00,VWS V14.01,2013-09-08 12:10:00,
2013-09-08 07:15:00,70.0,67.6,29.80,North,11,1.0,1.0,92,0.00,,,0.00,VWS V14.01,2013-09-08 12:15:00,
2013-09-08 07:20:00,70.0,67.6,29.80,North,11,0.0,0.0,92,0.00,,,0.00,VWS V14.01,2013-09-08 12:20:00,
2013-09-08 07:25:00,70.0,67.9,29.81,North,11,0.0,2.0,93,0.00,,,0.00,VWS V14.01,2013-09-08 12:25:00,
2013-09-08 07:30:00,70.1,68.0,29.81,North,11,0.0,0.0,93,0.00,,,0.00,VWS V14.01,2013-09-08 12:30:00,
2013-09-08 07:35:00,70.2,68.1,29.80,North,11,0.0,0.0,93,0.00,,,0.00,VWS V14.01,2013-09-08 12:35:00,
2013-09-08 07:40:00,70.5,68.4,29.80,North,11,0.0,1.0,93,0.00,,,0.00,VWS V14.01,2013-09-08 12:40:00,
2013-09-08 07:45:00,70.8,68.4,29.80,North,11,0.0,0.0,92,0.00,,,0.00,VWS V14.01,2013-09-08 12:45:00,
2013-09-08 07:50:00,71.1,68.7,29.80,North,11,0.0,0.0,92,0.00,,,0.00,VWS V14.01,2013-09-08 12:50:00,
2013-09-08 07:55:00,71.6,68.8,29.80,North,11,0.0,0.0,91,0.00,,,0.00,VWS V14.01,2013-09-08 12:55:00,
2013-09-08 08:00:00,72.0,68.9,29.80,North,11,1.0,1.0,90,0.00,,,0.00,VWS V14.01,2013-09-08 13:00:00,
2013-09-08 08:05:00,72.3,68.9,29.80,North,11,1.0,3.0,89,0.00,,,0.00,VWS V14.01,2013-09-08 13:05:00,
2013-09-08 08:10:00,72.5,69.1,29.80,East,88,0.0,0.0,89,0.00,,,0.00,VWS V14.01,2013-09-08 13:10:00,
2013-09-08 08:15:00,72.9,69.5,29.80,ENE,70,2.0,3.0,89,0.00,,,0.00,VWS V14.01,2013-09-08 13:15:00,
2013-09-08 08:20:00,73.2,69.4,29.80,ENE,70,1.0,2.0,88,0.00,,,0.00,VWS V14.01,2013-09-08 13:20:00,
2013-09-08 08:25:00,73.6,69.8,29.80,ENE,77,0.0,4.0,88,0.00,,,0.00,VWS V14.01,2013-09-08 13:25:00,
2013-09-08 08:30:00,74.0,69.9,29.80,ENE,71,1.0,2.0,87,0.00,,,0.00,VWS V14.01,2013-09-08 13:30:00,
2013-09-08 08:35:00,74.3,69.8,29.80,ENE,73,0.0,1.0,86,0.00,,,0.00,VWS V14.01,2013-09-08 13:35:00,
2013-09-08 08:40:00,74.5,70.0,29.80,East,83,1.0,3.0,86,0.00,,,0.00,VWS V14.01,2013-09-08 13:40:00,
2013-09-08 08:45:00,74.6,69.8,29.80,East,80,3.0,3.0,85,0.00,,,0.00,VWS V14.01,2013-09-08 13:45:00,
2013-09-08 08:50:00,74.9,70.1,29.80,ESE,111,2.0,2.0,85,0.00,,,0.00,VWS V14.01,2013-09-08 13:50:00,
2013-09-08 08:55:00,75.1,70.3,29.80,ESE,106,2.0,2.0,85,0.00,,,0.00,VWS V14.01,2013-09-08 13:55:00,
2013-09-08 09:00:00,75.4,70.6,29.80,East,100,0.0,2.0,85,0.00,,,0.00,VWS V14.01,2013-09-08 14:00:00,
2013-09-08 09:05:00,75.7,70.5,29.80,East,88,0.0,2.0,84,0.00,,,0.00,VWS V14.01,2013-09-08 14:05:00,
2013-09-08 09:10:00,76.1,70.9,29.80,ESE,109,3.0,5.0,84,0.00,,,0.00,VWS V14.01,2013-09-08 14:10:00,
2013-09-08 09:15:00,76.1,70.9,29.80,ESE,120,1.0,5.0,84,0.00,,,0.00,VWS V14.01,2013-09-08 14:15:00,
2013-09-08 09:20:00,76.5,71.7,29.81,East,86,2.0,5.0,85,0.00,,,0.00,VWS V14.01,2013-09-08 14:20:00,
2013-09-08 09:25:00,76.7,71.2,29.81,East,92,2.0,3.0,83,0.00,,,0.00,VWS V14.01,2013-09-08 14:25:00,
2013-09-08 09:30:00,76.8,71.6,29.81,NE,51,1.0,2.0,84,0.00,,,0.00,VWS V14.01,2013-09-08 14:30:00,
2013-09-08 09:35:00,77.2,71.6,29.81,ENE,75,1.0,6.0,83,0.00,,,0.00,VWS V14.01,2013-09-08 14:35:00,
2013-09-08 09:40:00,77.2,71.6,29.81,East,83,2.0,2.0,83,0.00,,,0.00,VWS V14.01,2013-09-08 14:40:00,
2013-09-08 09:45:00,77.4,71.8,29.81,East,93,1.0,3.0,83,0.00,,,0.00,VWS V14.01,2013-09-08 14:45:00,
2013-09-08 09:50:00,78.0,72.4,29.81,NE,50,0.0,3.0,83,0.00,,,0.00,VWS V14.01,2013-09-08 14:50:00,
2013-09-08 09:55:00,78.6,72.7,29.81,ENE,70,1.0,2.0,82,0.00,,,0.00,VWS V14.01,2013-09-08 14:55:00,
2013-09-08 10:00:00,79.0,73.0,29.81,NE,54,1.0,2.0,82,0.00,,,0.00,VWS V14.01,2013-09-08 15:00:00,
2013-09-08 10:05:00,79.3,73.0,29.81,East,95,1.0,4.0,81,0.00,,,0.00,VWS V14.01,2013-09-08 15:05:00,
2013-09-08 10:10:00,79.2,72.9,29.81,ENE,57,3.0,7.0,81,0.00,,,0.00,VWS V14.01,2013-09-08 15:10:00,
2013-09-08 10:15:00,79.3,73.3,29.81,ENE,72,1.0,5.0,82,0.00,,,0.00,VWS V14.01,2013-09-08 15:15:00,
2013-09-08 10:21:00,80.1,73.4,29.81,ESE,111,1.0,5.0,80,0.00,,,0.00,VWS V14.01,2013-09-08 15:21:00,
2013-09-08 10:26:00,80.8,74.1,29.81,East,87,3.0,7.0,80,0.00,,,0.00,VWS V14.01,2013-09-08 15:26:00,
2013-09-08 10:31:00,81.5,74.4,29.81,NNE,18,3.0,3.0,79,0.00,,,0.00,VWS V14.01,2013-09-08 15:31:00,
2013-09-08 10:36:00,82.2,73.9,29.81,NE,52,2.0,4.0,76,0.00,,,0.00,VWS V14.01,2013-09-08 15:36:00,
2013-09-08 10:41:00,82.3,74.0,29.81,ENE,73,2.0,5.0,76,0.00,,BKN250,0.00,VWS V14.01,2013-09-08 15:41:00,
2013-09-08 10:46:00,82.2,73.5,29.81,East,95,3.0,5.0,75,0.00,,BKN250,0.00,VWS V14.01,2013-09-08 15:46:00,
2013-09-08 10:51:00,82.1,73.8,29.81,ESE,117,4.0,4.0,76,0.00,,BKN250,0.00,VWS V14.01,2013-09-08 15:51:00,
2013-09-08 10:56:00,82.3,74.0,29.82,East,95,1.0,4.0,76,0.00,,BKN250,0.00,VWS V14.01,2013-09-08 15:56:00,
2013-09-08 11:01:00,82.9,74.9,29.82,ESE,117,3.0,4.0,77,0.00,,BKN250,0.00,VWS V14.01,2013-09-08 16:01:00,
2013-09-08 11:06:00,83.6,74.0,29.82,East,97,5.0,7.0,73,0.00,,BKN250,0.00,VWS V14.01,2013-09-08 16:06:00,
2013-09-08 11:11:00,83.8,73.8,29.82,ENE,75,2.0,6.0,72,0.00,,BKN250,0.00,VWS V14.01,2013-09-08 16:11:00,
2013-09-08 11:16:00,84.1,74.1,29.82,ENE,72,4.0,5.0,72,0.00,,BKN250,0.00,VWS V14.01,2013-09-08 16:16:00,
2013-09-08 11:21:00,84.2,74.2,29.82,East,81,3.0,6.0,72,0.00,,BKN250,0.00,VWS V14.01,2013-09-08 16:21:00,
2013-09-08 11:26:00,84.1,74.1,29.82,SE,129,2.0,6.0,72,0.00,,BKN250,0.00,VWS V14.01,2013-09-08 16:26:00,
2013-09-08 11:31:00,83.9,73.9,29.82,East,97,2.0,5.0,72,0.00,,BKN250,0.00,VWS V14.01,2013-09-08 16:31:00,
2013-09-08 11:36:00,83.5,73.9,29.81,ESE,114,2.0,5.0,73,0.00,,BKN250,0.00,VWS V14.01,2013-09-08 16:36:00,
2013-09-08 11:41:00,83.4,74.2,29.81,ENE,66,0.0,6.0,74,0.00,,BKN250,0.00,VWS V14.01,2013-09-08 16:41:00,
2013-09-08 11:46:00,83.7,74.1,29.81,NNE,25,2.0,3.0,73,0.00,,BKN250,0.00,VWS V14.01,2013-09-08 16:46:00,
2013-09-08 11:51:00,83.9,74.3,29.81,NNE,14,3.0,3.0,73,0.00,,BKN250,0.00,VWS V14.01,2013-09-08 16:51:00,
2013-09-08 11:56:00,84.0,74.4,29.81,East,91,1.0,3.0,73,0.00,,BKN250,0.00,VWS V14.01,2013-09-08 16:56:00,
2013-09-08 12:01:00,83.7,74.1,29.81,East,80,3.0,5.0,73,0.00,,BKN250,0.00,VWS V14.01,2013-09-08 17:01:00,
2013-09-08 12:06:00,83.6,74.4,29.81,East,96,0.0,5.0,74,0.00,,BKN250,0.00,VWS V14.01,2013-09-08 17:06:00,
2013-09-08 12:11:00,83.5,74.3,29.81,ENE,69,0.0,2.0,74,0.00,,BKN250,0.00,VWS V14.01,2013-09-08 17:11:00,
2013-09-08 12:16:00,83.4,74.2,29.81,ESE,120,3.0,7.0,74,0.00,,BKN250,0.00,VWS V14.01,2013-09-08 17:16:00,
2013-09-08 12:21:00,84.0,75.2,29.81,SE,142,1.0,2.0,75,0.00,,BKN250,0.00,VWS V14.01,2013-09-08 17:21:00,
2013-09-08 12:26:00,85.3,75.2,29.81,NE,34,1.0,4.0,72,0.00,,BKN250,0.00,VWS V14.01,2013-09-08 17:26:00,
2013-09-08 12:31:00,85.3,74.8,29.80,East,87,3.0,3.0,71,0.00,,BKN250,0.00,VWS V14.01,2013-09-08 17:31:00,
2013-09-08 12:36:00,84.9,74.0,29.80,ENE,65,5.0,9.0,70,0.00,,BKN250,0.00,VWS V14.01,2013-09-08 17:36:00,
2013-09-08 12:41:00,84.6,74.6,29.80,NE,45,1.0,3.0,72,0.00,,BKN250,0.00,VWS V14.01,2013-09-08 17:41:00,
2013-09-08 12:46:00,84.8,74.4,29.80,ENE,70,0.0,4.0,71,0.00,,BKN250,0.00,VWS V14.01,2013-09-08 17:46:00,
2013-09-08 12:51:00,84.9,74.4,29.80,SE,135,3.0,5.0,71,0.00,,BKN250,0.00,VWS V14.01,2013-09-08 17:51:00,
2013-09-08 12:56:00,85.0,75.0,29.79,East,85,6.0,7.0,72,0.00,,BKN250,0.00,VWS V14.01,2013-09-08 17:56:00,
2013-09-08 13:01:00,85.4,74.9,29.80,East,83,6.0,7.0,71,0.00,,BKN250,0.00,VWS V14.01,2013-09-08 18:01:00,
2013-09-08 13:06:00,85.9,75.4,29.79,ENE,69,4.0,6.0,71,0.00,,BKN250,0.00,VWS V14.01,2013-09-08 18:06:00,
2013-09-08 13:11:00,86.5,75.1,29.80,ESE,108,4.0,4.0,69,0.00,,BKN250,0.00,VWS V14.01,2013-09-08 18:11:00,
2013-09-08 13:16:00,86.2,74.8,29.79,ESE,103,3.0,5.0,69,0.00,,BKN250,0.00,VWS V14.01,2013-09-08 18:16:00,
2013-09-08 13:21:00,85.9,75.0,29.79,South,180,1.0,1.0,70,0.00,,BKN250,0.00,VWS V14.01,2013-09-08 18:21:00,
2013-09-08 13:26:00,86.0,75.1,29.79,ESE,117,4.0,6.0,70,0.00,,BKN250,0.00,VWS V14.01,2013-09-08 18:26:00,
2013-09-08 13:31:00,85.9,75.4,29.79,East,82,1.0,3.0,71,0.00,,BKN250,0.00,VWS V14.01,2013-09-08 18:31:00,
2013-09-08 13:36:00,86.0,74.7,29.79,ESE,119,1.0,6.0,69,0.00,,BKN250,0.00,VWS V14.01,2013-09-08 18:36:00,
2013-09-08 13:41:00,86.3,74.5,29.79,South,184,5.0,6.0,68,0.00,,BKN250,0.00,VWS V14.01,2013-09-08 18:41:00,
2013-09-08 13:46:00,86.8,74.5,29.79,ESE,118,3.0,7.0,67,0.00,,BKN250,0.00,VWS V14.01,2013-09-08 18:46:00,
2013-09-08 13:52:00,87.5,74.8,29.79,SSE,160,8.0,8.0,66,0.00,,BKN250,0.00,VWS V14.01,2013-09-08 18:52:00,
2013-09-08 13:57:00,87.5,74.3,29.79,SSE,158,2.0,5.0,65,0.00,,BKN250,0.00,VWS V14.01,2013-09-08 18:57:00,
2013-09-08 14:02:00,87.7,74.9,29.78,East,86,2.0,5.0,66,0.00,,BKN250,0.00,VWS V14.01,2013-09-08 19:02:00,
2013-09-08 14:07:00,87.9,75.1,29.78,SSE,160,4.0,5.0,66,0.00,,BKN250,0.00,VWS V14.01,2013-09-08 19:07:00,
2013-09-08 14:12:00,87.8,74.6,29.78,South,174,5.0,9.0,65,0.00,,BKN250,0.00,VWS V14.01,2013-09-08 19:12:00,
2013-09-08 14:17:00,87.7,74.5,29.78,SSE,166,1.0,5.0,65,0.00,,BKN250,0.00,VWS V14.01,2013-09-08 19:17:00,
2013-09-08 14:22:00,87.8,74.6,29.77,SSE,152,2.0,9.0,65,0.00,,BKN250,0.00,VWS V14.01,2013-09-08 19:22:00,
2013-09-08 14:27:00,88.0,74.8,29.77,SE,131,3.0,6.0,65,0.00,,BKN250,0.00,VWS V14.01,2013-09-08 19:27:00,
2013-09-08 14:32:00,87.9,73.7,29.77,SSE,150,1.0,5.0,63,0.00,,BKN250,0.00,VWS V14.01,2013-09-08 19:32:00,
2013-09-08 14:37:00,88.0,73.8,29.77,East,97,6.0,6.0,63,0.00,,BKN250,0.00,VWS V14.01,2013-09-08 19:37:00,
2013-09-08 14:42:00,88.2,73.6,29.77,East,98,2.0,5.0,62,0.00,,BKN250,0.00,VWS V14.01,2013-09-08 19:42:00,
2013-09-08 14:47:00,88.4,74.2,29.77,SSE,161,1.0,1.0,63,0.00,,BKN250,0.00,VWS V14.01,2013-09-08 19:47:00,
2013-09-08 14:52:00,88.3,73.2,29.76,SE,131,2.0,6.0,61,0.00,,BKN250,0.00,VWS V14.01,2013-09-08 19:52:00,
2013-09-08 14:57:00,88.4,73.7,29.76,SE,124,1.0,7.0,62,0.00,,BKN250,0.00,VWS V14.01,2013-09-08 19:57:00,
2013-09-08 15:02:00,88.6,73.4,29.76,SSE,153,8.0,8.0,61,0.00,,BKN250,0.00,VWS V14.01,2013-09-08 20:02:00,
2013-09-08 15:07:00,89.0,74.3,29.76,SSE,166,6.0,7.0,62,0.00,,BKN250,0.00,VWS V14.01,2013-09-08 20:07:00,
2013-09-08 15:12:00,89.5,73.8,29.76,SE,146,5.0,8.0,60,0.00,,BKN250,0.00,VWS V14.01,2013-09-08 20:12:00,
2013-09-08 15:17:00,89.7,74.0,29.76,SE,133,4.0,6.0,60,0.00,,BKN250,0.00,VWS V14.01,2013-09-08 20:17:00,
2013-09-08 15:22:00,89.7,73.5,29.75,SSE,168,4.0,10.0,59,0.00,,BKN250,0.00,VWS V14.01,2013-09-08 20:22:00,
2013-09-08 15:27:00,89.3,72.6,29.75,South,174,6.0,8.0,58,0.00,,BKN250,0.00,VWS V14.01,2013-09-08 20:27:00,
2013-09-08 15:32:00,89.3,73.6,29.75,SSE,164,7.0,8.0,60,0.00,,BKN250,0.00,VWS V14.01,2013-09-08 20:32:00,
2013-09-08 15:37:00,89.7,72.4,29.75,South,171,9.0,9.0,57,0.00,,BKN250,0.00,VWS V14.01,2013-09-08 20:37:00,
2013-09-08 15:42:00,89.8,74.1,29.75,ESE,110,5.0,6.0,60,0.00,,BKN250,0.00,VWS V14.01,2013-09-08 20:42:00,
2013-09-08 15:47:00,89.7,73.0,29.75,SSE,148,3.0,3.0,58,0.00,,BKN250,0.00,VWS V14.01,2013-09-08 20:47:00,
2013-09-08 15:52:00,89.8,72.6,29.75,SSE,165,7.0,7.0,57,0.00,,BKN250,0.00,VWS V14.01,2013-09-08 20:52:00,
2013-09-08 15:57:00,89.7,73.0,29.75,SE,145,5.0,5.0,58,0.00,,BKN250,0.00,VWS V14.01,2013-09-08 20:57:00,
2013-09-08 16:02:00,89.8,73.6,29.75,SSE,166,5.0,5.0,59,0.00,,BKN250,0.00,VWS V14.01,2013-09-08 21:02:00,
2013-09-08 16:07:00,89.9,74.2,29.75,ESE,120,8.0,8.0,60,0.00,,BKN250,0.00,VWS V14.01,2013-09-08 21:07:00,
2013-09-08 16:12:00,89.8,74.1,29.75,South,169,5.0,5.0,60,0.00,,BKN250,0.00,VWS V14.01,2013-09-08 21:12:00,
2013-09-08 16:17:00,89.8,74.6,29.74,SSE,149,6.0,7.0,61,0.00,,BKN250,0.00,VWS V14.01,2013-09-08 21:17:00,
2013-09-08 16:22:00,89.8,75.1,29.74,SSE,165,4.0,5.0,62,0.00,,BKN250,0.00,VWS V14.01,2013-09-08 21:22:00,
2013-09-08 16:27:00,90.0,73.8,29.74,ESE,110,5.0,7.0,59,0.00,,BKN250,0.00,VWS V14.01,2013-09-08 21:27:00,
2013-09-08 16:32:00,90.2,73.4,29.74,ESE,113,4.0,4.0,58,0.00,,BKN250,0.00,VWS V14.01,2013-09-08 21:32:00,
2013-09-08 16:37:00,90.3,73.5,29.74,SE,139,1.0,3.0,58,0.00,,BKN250,0.00,VWS V14.01,2013-09-08 21:37:00,
2013-09-08 16:42:00,90.3,73.0,29.74,ENE,75,2.0,3.0,57,0.00,,SCT250,0.00,VWS V14.01,2013-09-08 21:42:00,
2013-09-08 16:47:00,90.4,73.6,29.74,SSE,164,3.0,4.0,58,0.00,,SCT250,0.00,VWS V14.01,2013-09-08 21:47:00,
2013-09-08 16:52:00,90.7,72.3,29.74,South,175,2.0,6.0,55,0.00,,SCT250,0.00,VWS V14.01,2013-09-08 21:52:00,
2013-09-08 16:57:00,90.9,72.5,29.74,South,180,4.0,7.0,55,0.00,,SCT250,0.00,VWS V14.01,2013-09-08 21:57:00,
2013-09-08 17:02:00,90.9,72.5,29.74,South,174,6.0,7.0,55,0.00,,SCT250,0.00,VWS V14.01,2013-09-08 22:02:00,
2013-09-08 17:07:00,90.8,71.9,29.74,South,183,3.0,8.0,54,0.00,,SCT250,0.00,VWS V14.01,2013-09-08 22:07:00,
2013-09-08 17:12:00,90.6,71.1,29.74,SSW,192,4.0,6.0,53,0.00,,SCT250,0.00,VWS V14.01,2013-09-08 22:12:00,
2013-09-08 17:17:00,90.5,71.1,29.74,SSE,158,4.0,4.0,53,0.00,,SCT250,0.00,VWS V14.01,2013-09-08 22:17:00,
2013-09-08 17:22:00,90.4,71.5,29.73,SSE,154,2.0,5.0,54,0.00,,SCT250,0.00,VWS V14.01,2013-09-08 22:22:00,
2013-09-08 17:27:00,90.4,72.1,29.73,South,183,3.0,5.0,55,0.00,,SCT250,0.00,VWS V14.01,2013-09-08 22:27:00,
2013-09-08 17:32:00,90.3,73.0,29.73,SSE,154,2.0,6.0,57,0.00,,SCT250,0.00,VWS V14.01,2013-09-08 22:32:00,
2013-09-08 17:37:00,90.1,72.3,29.73,South,177,3.0,5.0,56,0.00,,SCT250,0.00,VWS V14.01,2013-09-08 22:37:00,
2013-09-08 17:42:00,90.0,72.7,29.73,South,181,3.0,5.0,57,0.00,,SCT250,0.00,VWS V14.01,2013-09-08 22:42:00,
2013-09-08 17:47:00,90.1,73.8,29.73,South,187,2.0,4.0,59,0.00,,SCT250,0.00,VWS V14.01,2013-09-08 22:47:00,
2013-09-08 17:52:00,90.0,72.7,29.73,SSE,168,4.0,5.0,57,0.00,,SCT250,0.00,VWS V14.01,2013-09-08 22:52:00,
2013-09-08 17:58:00,89.9,73.2,29.73,SSE,154,4.0,4.0,58,0.00,,SCT250,0.00,VWS V14.01,2013-09-08 22:58:00,
2013-09-08 18:03:00,89.8,73.6,29.73,SSE,168,2.0,3.0,59,0.00,,SCT250,0.00,VWS V14.01,2013-09-08 23:03:00,
2013-09-08 18:08:00,89.5,73.8,29.73,SSE,163,2.0,3.0,60,0.00,,SCT250,0.00,VWS V14.01,2013-09-08 23:08:00,
2013-09-08 18:13:00,89.4,74.2,29.73,SSE,161,1.0,3.0,61,0.00,,SCT250,0.00,VWS V14.01,2013-09-08 23:13:00,
2013-09-08 18:18:00,89.3,73.6,29.72,SSE,162,0.0,2.0,60,0.00,,SCT250,0.00,VWS V14.01,2013-09-08 23:18:00,
2013-09-08 18:23:00,89.2,74.0,29.72,SSE,160,0.0,3.0,61,0.00,,SCT250,0.00,VWS V14.01,2013-09-08 23:23:00,
2013-09-08 18:28:00,89.0,74.3,29.72,SSE,160,3.0,3.0,62,0.00,,SCT250,0.00,VWS V14.01,2013-09-08 23:28:00,
2013-09-08 18:33:00,88.8,74.1,29.72,SSE,161,0.0,2.0,62,0.00,,SCT250,0.00,VWS V14.01,2013-09-08 23:33:00,
2013-09-08 18:38:00,88.7,74.5,29.72,SSE,161,1.0,1.0,63,0.00,,SCT250,0.00,VWS V14.01,2013-09-08 23:38:00,
2013-09-08 18:43:00,88.5,74.3,29.72,SSE,161,1.0,2.0,63,0.00,,SCT250,0.00,VWS V14.01,2013-09-08 23:43:00,
2013-09-08 18:48:00,88.3,74.6,29.72,SSE,161,0.0,2.0,64,0.00,,SCT250,0.00,VWS V14.01,2013-09-08 23:48:00,
2013-09-08 18:53:00,88.1,74.4,29.72,SSE,161,0.0,0.0,64,0.00,,SCT250,0.00,VWS V14.01,2013-09-08 23:53:00,
2013-09-08 18:58:00,87.9,74.7,29.72,SSE,161,0.0,0.0,65,0.00,,SCT250,0.00,VWS V14.01,2013-09-08 23:58:00,
2013-09-08 19:03:00,87.6,74.4,29.72,SSE,161,0.0,1.0,65,0.00,,SCT250,0.00,VWS V14.01,2013-09-09 00:03:00,
2013-09-08 19:08:00,87.4,74.2,29.72,SSE,161,0.0,0.0,65,0.00,,SCT250,0.00,VWS V14.01,2013-09-09 00:08:00,
2013-09-08 19:13:00,87.2,74.9,29.72,SSE,161,0.0,0.0,67,0.00,,FEW250,0.00,VWS V14.01,2013-09-09 00:13:00,
2013-09-08 19:18:00,86.9,74.2,29.72,SSE,162,0.0,2.0,66,0.00,,FEW250,0.00,VWS V14.01,2013-09-09 00:18:00,
2013-09-08 19:23:00,86.7,74.0,29.72,SSE,162,0.0,0.0,66,0.00,,FEW250,0.00,VWS V14.01,2013-09-09 00:23:00,
2013-09-08 19:28:00,86.5,74.7,29.72,SSE,162,0.0,0.0,68,0.00,,FEW250,0.00,VWS V14.01,2013-09-09 00:28:00,
2013-09-08 19:33:00,86.0,74.7,29.72,SSE,162,0.0,0.0,69,0.00,,FEW250,0.00,VWS V14.01,2013-09-09 00:33:00,
2013-09-08 19:38:00,85.4,74.1,29.71,SSE,162,0.0,0.0,69,0.00,,FEW250,0.00,VWS V14.01,2013-09-09 00:38:00,
2013-09-08 19:43:00,84.9,74.0,29.71,SSE,162,0.0,0.0,70,0.00,,FEW250,0.00,VWS V14.01,2013-09-09 00:43:00,
2013-09-08 19:48:00,84.6,74.2,29.71,SSE,162,0.0,0.0,71,0.00,,FEW250,0.00,VWS V14.01,2013-09-09 00:48:00,
2013-09-08 19:53:00,84.3,73.9,29.71,SSE,161,0.0,0.0,71,0.00,,FEW250,0.00,VWS V14.01,2013-09-09 00:53:00,
2013-09-08 19:58:00,84.1,74.5,29.72,SSE,161,0.0,0.0,73,0.00,,FEW250,0.00,VWS V14.01,2013-09-09 00:58:00,
2013-09-08 20:03:00,83.7,74.1,29.72,SSE,161,0.0,0.0,73,0.00,,FEW250,0.00,VWS V14.01,2013-09-09 01:03:00,
2013-09-08 20:08:00,83.5,73.9,29.72,SSE,162,0.0,0.0,73,0.00,,FEW250,0.00,VWS V14.01,2013-09-09 01:08:00,
2013-09-08 20:13:00,83.2,74.1,29.72,SSE,161,0.0,0.0,74,0.00,,FEW250,0.00,VWS V14.01,2013-09-09 01:13:00,
2013-09-08 20:18:00,83.1,74.0,29.72,SSE,161,0.0,0.0,74,0.00,,FEW250,0.00,VWS V14.01,2013-09-09 01:18:00,
2013-09-08 20:23:00,83.0,74.3,29.72,SSE,161,0.0,0.0,75,0.00,,FEW250,0.00,VWS V14.01,2013-09-09 01:23:00,
2013-09-08 20:28:00,82.8,74.5,29.72,SSE,161,0.0,0.0,76,0.00,,FEW250,0.00,VWS V14.01,2013-09-09 01:28:00,
2013-09-08 20:33:00,82.6,74.3,29.72,SSE,161,0.0,0.0,76,0.00,,FEW250,0.00,VWS V14.01,2013-09-09 01:33:00,
2013-09-08 20:38:00,82.4,74.5,29.72,SSE,161,0.0,0.0,77,0.00,,FEW250,0.00,VWS V14.01,2013-09-09 01:38:00,
2013-09-08 20:43:00,82.3,74.4,29.72,SSE,161,0.0,1.0,77,0.00,,CLR,0.00,VWS V14.01,2013-09-09 01:43:00,
2013-09-08 20:48:00,82.1,74.2,29.72,NE,56,1.0,1.0,77,0.00,,CLR,0.00,VWS V14.01,2013-09-09 01:48:00,
2013-09-08 20:53:00,81.9,74.0,29.72,South,188,0.0,1.0,77,0.00,,CLR,0.00,VWS V14.01,2013-09-09 01:53:00,
2013-09-08 20:58:00,81.8,73.9,29.72,South,186,0.0,1.0,77,0.00,,CLR,0.00,VWS V14.01,2013-09-09 01:58:00,
2013-09-08 21:03:00,81.7,74.2,29.72,South,186,0.0,1.0,78,0.00,,CLR,0.00,VWS V14.01,2013-09-09 02:03:00,
2013-09-08 21:08:00,81.5,74.0,29.72,South,186,0.0,0.0,78,0.00,,CLR,0.00,VWS V14.01,2013-09-09 02:08:00,
2013-09-08 21:14:00,81.4,73.9,29.72,ESE,106,0.0,1.0,78,0.00,,CLR,0.00,VWS V14.01,2013-09-09 02:14:00,
2013-09-08 21:19:00,81.1,74.0,29.73,South,171,2.0,2.0,79,0.00,,CLR,0.00,VWS V14.01,2013-09-09 02:19:00,
2013-09-08 21:24:00,80.7,74.0,29.73,South,171,2.0,2.0,80,0.00,,CLR,0.00,VWS V14.01,2013-09-09 02:24:00,
2013-09-08 21:29:00,80.4,73.7,29.73,South,171,1.0,3.0,80,0.00,,CLR,0.00,VWS V14.01,2013-09-09 02:29:00,
2013-09-08 21:34:00,80.2,73.5,29.73,South,171,0.0,1.0,80,0.00,,CLR,0.00,VWS V14.01,2013-09-09 02:34:00,
2013-09-08 21:39:00,79.9,73.6,29.73,SSE,168,1.0,2.0,81,0.00,,CLR,0.00,VWS V14.01,2013-09-09 02:39:00,
2013-09-08 21:44:00,79.8,73.4,29.73,SE,141,0.0,1.0,81,0.00,,CLR,0.00,VWS V14.01,2013-09-09 02:44:00,
2013-09-08 21:49:00,79.8,73.4,29.73,South,185,0.0,1.0,81,0.00,,CLR,0.00,VWS V14.01,2013-09-09 02:49:00,
2013-09-08 21:54:00,79.8,73.4,29.73,South,185,0.0,2.0,81,0.00,,CLR,0.00,VWS V14.01,2013-09-09 02:54:00,
2013-09-08 21:59:00,79.8,73.1,29.73,South,184,0.0,1.0,80,0.00,,CLR,0.00,VWS V14.01,2013-09-09 02:59:00,
2013-09-08 22:04:00,79.9,73.2,29.73,South,184,0.0,1.0,80,0.00,,CLR,0.00,VWS V14.01,2013-09-09 03:04:00,
2013-09-08 22:09:00,80.0,73.3,29.73,South,184,2.0,2.0,80,0.00,,CLR,0.00,VWS V14.01,2013-09-09 03:09:00,
2013-09-08 22:14:00,80.1,73.0,29.73,South,184,0.0,1.0,79,0.00,,CLR,0.00,VWS V14.01,2013-09-09 03:14:00,
2013-09-08 22:19:00,80.1,73.0,29.73,South,184,1.0,1.0,79,0.00,,CLR,0.00,VWS V14.01,2013-09-09 03:19:00,
2013-09-08 22:24:00,80.0,72.9,29.73,South,184,0.0,2.0,79,0.00,,CLR,0.00,VWS V14.01,2013-09-09 03:24:00,
2013-09-08 22:29:00,79.9,72.8,29.73,South,184,0.0,1.0,79,0.00,,CLR,0.00,VWS V14.01,2013-09-09 03:29:00,
2013-09-08 22:34:00,79.9,72.8,29.73,South,184,0.0,2.0,79,0.00,,CLR,0.00,VWS V14.01,2013-09-09 03:34:00,
2013-09-08 22:39:00,79.8,72.7,29.73,South,184,0.0,1.0,79,0.00,,CLR,0.00,VWS V14.01,2013-09-09 03:39:00,
2013-09-08 22:44:00,79.7,73.0,29.73,South,184,0.0,1.0,80,0.00,,CLR,0.00,VWS V14.01,2013-09-09 03:44:00,
2013-09-08 22:49:00,79.5,72.8,29.73,South,184,0.0,1.0,80,0.00,,CLR,0.00,VWS V14.01,2013-09-09 03:49:00,
2013-09-08 22:54:00,79.5,72.8,29.73,South,184,0.0,0.0,80,0.00,,CLR,0.00,VWS V14.01,2013-09-09 03:54:00,
2013-09-08 22:59:00,79.3,72.6,29.73,South,184,0.0,0.0,80,0.00,,CLR,0.00,VWS V14.01,2013-09-09 03:59:00,
2013-09-08 23:01:00,79.3,72.6,29.73,South,184,0.0,0.0,80,0.00,,CLR,0.00,VWS V14.01,2013-09-09 04:01:00,
2013-09-08 23:02:00,79.3,72.6,29.73,South,184,0.0,0.0,80,0.00,,CLR,0.00,VWS V14.01,2013-09-09 04:02:00,
2013-09-08 23:03:00,79.2,72.5,29.73,South,184,1.0,1.0,80,0.00,,CLR,0.00,VWS V14.01,2013-09-09 04:03:00,
2013-09-08 23:08:00,79.1,72.8,29.73,South,184,0.0,0.0,81,0.00,,CLR,0.00,VWS V14.01,2013-09-09 04:08:00,
2013-09-08 23:13:00,78.9,72.6,29.73,South,184,0.0,0.0,81,0.00,,CLR,0.00,VWS V14.01,2013-09-09 04:13:00,
2013-09-08 23:18:00,78.8,72.1,29.73,South,183,1.0,3.0,80,0.00,,CLR,0.00,VWS V14.01,2013-09-09 04:18:00,
2013-09-08 23:23:00,78.7,71.6,29.73,South,183,1.0,2.0,79,0.00,,CLR,0.00,VWS V14.01,2013-09-09 04:23:00,
2013-09-08 23:28:00,78.7,71.6,29.73,South,183,1.0,2.0,79,0.00,,CLR,0.00,VWS V14.01,2013-09-09 04:28:00,
2013-09-08 23:33:00,78.6,71.2,29.73,South,183,2.0,3.0,78,0.00,,CLR,0.00,VWS V14.01,2013-09-09 04:33:00,
2013-09-08 23:38:00,78.4,70.6,29.74,South,183,2.0,2.0,77,0.00,,CLR,0.00,VWS V14.01,2013-09-09 04:38:00,
2013-09-08 23:43:00,78.3,70.5,29.73,South,183,0.0,1.0,77,0.00,,CLR,0.00,VWS V14.01,2013-09-09 04:43:00,
2013-09-08 23:48:00,78.2,70.4,29.73,South,183,1.0,2.0,77,0.00,,CLR,0.00,VWS V14.01,2013-09-09 04:48:00,
2013-09-08 23:53:00,78.2,70.4,29.73,South,183,1.0,2.0,77,0.00,,CLR,0.00,VWS V14.01,2013-09-09 04:53:00,
2013-09-08 23:58:00,78.1,70.3,29.73,South,183,0.0,1.0,77,0.00,,CLR,0.00,VWS V14.01,2013-09-09 04:58:00,